Latrobe, PA

7:22 PM EDT on August 24, 2019 (GMT -0400)
Arnold Palmer Regional

Weather History for KLBE - June, 2019

Change the Weather History Date:

Monday, June 3, 2019

  Actual Average Record
Temperature  
Mean Temperature 56 °F -  
Max Temperature 64 °F 72 °F 82 °F (2014)
Min Temperature 48 °F 52 °F 44 °F (2002)
Degree Days  
Heating Degree Days 9    
Growing Degree Days 6 (Base 50)    
Moisture  
Dew Point 44 °F    
Average Humidity 77    
Maximum Humidity 100    
Minimum Humidity 32    
Precipitation  
Precipitation 0.00 in - - ()
Sea Level Pressure  
Sea Level Pressure 29.99 in    
Wind  
Wind Speed 4 mph (West)    
Max Wind Speed 21 mph    
Max Gust Speed 24 mph    
Visibility 10 miles    
Events      
Averages and records for this station are not official NWS values.
T = Trace of Precipitation, MM = Missing Value Source: NWS Daily Summary

Daily Weather History Graph

Daily Weather History Graph

Search for Another Location

Airport or City:

Astronomy

Jun. 03, 2019 Rise Set
Actual Time 5:49 AM EDT 8:42 PM EDT
Civil Twilight 5:16 AM EDT 9:15 PM EDT
Nautical Twilight 4:35 AM EDT 9:56 PM EDT
Astronomical Twilight 3:48 AM EDT 10:43 PM EDT
Moon 6:08 AM EDT (6/3) 9:05 PM EDT (6/3)
Length of Visible Light 15h 58m
Length of Day
14h 53m
New Moon, 0% of the Moon is Illuminated
Jun 3
New Moon
Jun 10
First Quarter
Jun 17
Full
Jun 25
Last Quarter
Jul 2
New

Hourly Weather History & Observations

Time (EDT) Temp. Dew Point Humidity Pressure Visibility Wind Dir Wind Speed Gust Speed Precip Events Conditions
12:15 AM 50.0 °F 48.2 °F 94% 29.91 in 10.0 mi Calm Calm - N/A   Clear
12:35 AM 50.0 °F 48.2 °F 94% 29.91 in 10.0 mi Calm Calm - N/A   Clear
12:55 AM 48.2 °F 48.2 °F 100% 29.91 in 10.0 mi Calm Calm - N/A   Clear
1:15 AM 48.2 °F 48.2 °F 100% 29.91 in 10.0 mi SW 4.6 mph - N/A   Clear
1:35 AM 48.2 °F 48.2 °F 100% 29.91 in 10.0 mi Calm Calm - N/A   Clear
1:55 AM 48.2 °F 48.2 °F 100% 29.91 in 10.0 mi Calm Calm - N/A   Clear
2:15 AM 50.0 °F 48.2 °F 94% 29.91 in 10.0 mi Calm Calm - N/A   Clear
2:35 AM 50.0 °F 48.2 °F 94% 29.91 in 10.0 mi South 3.5 mph - N/A   Scattered Clouds
2:55 AM 48.2 °F 48.2 °F 100% 29.91 in 10.0 mi Calm Calm - N/A   Partly Cloudy
3:15 AM 48.2 °F 48.2 °F 100% 29.91 in 10.0 mi Calm Calm - N/A   Scattered Clouds
3:35 AM 48.2 °F 48.2 °F 100% 29.91 in 10.0 mi Calm Calm - N/A   Mostly Cloudy
3:55 AM 50.0 °F 50.0 °F 100% 29.91 in 10.0 mi Calm Calm - N/A   Overcast
4:15 AM 50.0 °F 50.0 °F 100% 29.91 in 10.0 mi South 3.5 mph - N/A   Mostly Cloudy
4:35 AM 50.0 °F 50.0 °F 100% 29.92 in 10.0 mi Calm Calm - N/A   Mostly Cloudy
4:55 AM 50.0 °F 50.0 °F 100% 29.93 in 10.0 mi SW 5.8 mph - N/A   Mostly Cloudy
5:15 AM 50.0 °F 50.0 °F 100% 29.94 in 10.0 mi SW 4.6 mph - N/A   Scattered Clouds
5:35 AM 50.0 °F 50.0 °F 100% 29.95 in 10.0 mi SSW 5.8 mph - N/A   Scattered Clouds
5:55 AM 50.0 °F 50.0 °F 100% 29.96 in 10.0 mi South 3.5 mph - N/A   Mostly Cloudy
6:45 AM 50.0 °F 48.2 °F 94% 30.00 in 10.0 mi Calm Calm - N/A   Scattered Clouds
7:50 AM 51.8 °F 46.4 °F 82% 30.03 in 10.0 mi NW 5.8 mph - N/A   Clear
8:45 AM 53.6 °F 41.0 °F 62% 30.06 in 10.0 mi WNW 13.8 mph - N/A   Clear
9:45 AM 55.4 °F 37.4 °F 51% 30.07 in 10.0 mi NNW 17.3 mph - N/A   Partly Cloudy
10:51 AM 57.2 °F 39.2 °F 51% 30.08 in 10.0 mi NNW 11.5 mph - N/A   Clear
11:51 AM 59.0 °F 37.4 °F 45% 30.10 in 10.0 mi WNW 20.7 mph - N/A   Clear
1:51 PM 60.8 °F 35.6 °F 39% 30.11 in 10.0 mi WNW 13.8 mph 23.0 mph N/A   Clear
2:51 PM 62.6 °F 39.2 °F 42% 30.08 in 10.0 mi WNW 15.0 mph 24.2 mph N/A   Clear
3:51 PM 62.6 °F 35.6 °F 37% 30.08 in 10.0 mi Calm Calm - N/A   Clear
4:50 PM 62.6 °F 35.6 °F 37% 30.08 in 10.0 mi NW 17.3 mph - N/A   Scattered Clouds
5:50 PM 64.4 °F 33.8 °F 32% 30.09 in 10.0 mi WNW 16.1 mph - N/A   Scattered Clouds
6:50 PM 62.6 °F 35.6 °F 37% 30.10 in 10.0 mi NW 13.8 mph - N/A   Clear
7:50 PM 60.8 °F 35.6 °F 39% 30.11 in 10.0 mi NW 13.8 mph - N/A   Clear
8:50 PM 57.2 °F 37.4 °F 48% 30.12 in 10.0 mi NW 9.2 mph - N/A   Clear
9:50 PM 53.6 °F 37.4 °F 54% 30.13 in 10.0 mi NW 6.9 mph - N/A   Clear